Stations météo

réclame
Mon MeteoGroup
Rostock-Warnemünde, Allemagne (10170): Température de l'air & dewpoint: 12.11.2018 05:00:00 - 18.11.2018 05:00:00 (CET)Rostock-Warnemünde, Allemagne (10170): Température de l'air 5cm & Température de l'air -5cm: 12.11.2018 05:00:00 - 18.11.2018 05:00:00 (CET)Rostock-Warnemünde, Allemagne (10170): Température de l'air -20cm & Température de l'air -100cm: 12.11.2018 05:00:00 - 18.11.2018 05:00:00 (CET)Rostock-Warnemünde, Allemagne (10170): Vitesse du vent & gusts: 12.11.2018 05:00:00 - 18.11.2018 05:00:00 (CET)Rostock-Warnemünde, Allemagne (10170): Direction du vent: 12.11.2018 05:00:00 - 18.11.2018 05:00:00 (CET)Rostock-Warnemünde, Allemagne (10170): reduced air pressure: 12.11.2018 05:00:00 - 18.11.2018 05:00:00 (CET)Rostock-Warnemünde, Allemagne (10170): visibility: 12.11.2018 05:00:00 - 18.11.2018 05:00:00 (CET)Rostock-Warnemünde, Allemagne (10170): Ensoleillement: 12.11.2018 05:00:00 - 18.11.2018 05:00:00 (CET)Rostock-Warnemünde, Allemagne (10170): Quantités de précipitations: 12.11.2018 05:00:00 - 18.11.2018 05:00:00 (CET)
Date & Time tt [°C] td [°C] tt 5cm [°C] tt -5cm [°C] tt -20cm [°C] tt -100cm [°C] ff [km/h] ff [knt] fx [km/h] fx [knt] dd ppp [hPa] vv [km] sd [min] rr [mm]
18.11.2018 05:00:00 1,5 0,5 -1,1 -2,0 3,4 10,2 3 2 8 4 ESE 1036,2 4,5 0 0,0
18.11.2018 04:00:00 0,0 -1,0 -4,1 -1,6 3,5 10,2 2 1 4 2 NE 1036,9 4,8 0 0,0
18.11.2018 03:00:00 0,6 -0,4 -4,6 -1,6 3,7 10,2 1 1 5 3 NNE 1037,4 4,9 0 0,0
18.11.2018 02:00:00 0,6 -0,4 -4,6 -1,2 4,0 10,3 2 1 10 6 ESE 1038,2 4,5 0 0,0
18.11.2018 01:00:00 1,2 -0,4 -2,3 -0,2 4,2 10,3 7 4 9 5 SE 1038,2 5 0 0,0
18.11.2018 00:00:00 1,7 -0,1 -2,3 0,2 4,3 10,3 5 3 9 5 E 1038,7 6 0 0,0
17.11.2018 23:00:00 2,1 0,3 -2,4 0,4 4,5 10,3 4 2 12 7 SE 1038,7 6 0 0,0
17.11.2018 22:00:00 2,6 0,2 0,5 0,5 4,6 10,3 10 5 18 10 SE 1038,7 6 0 0,0
17.11.2018 21:00:00 3,3 0,8 2,0 0,8 4,8 10,4 14 7 19 10 SE 1038,9 6 0 0,0
17.11.2018 20:00:00 2,9 1,2 0,4 0,6 5,0 10,4 5 3 16 8 ESE 1039,1 6 0 0,0
17.11.2018 19:00:00 3,4 1,0 1,2 1,1 5,2 10,4 9 5 14 8 ESE 1039,2 7 0 0,0
17.11.2018 18:00:00 4,1 0,7 2,0 2,0 5,3 10,4 10 6 16 9 ESE 1039,3 9 0 0,0
17.11.2018 17:00:00 4,7 1,2 2,9 2,4 5,5 10,4 9 5 18 10 SE 1039,4 9 2 0,0
17.11.2018 16:00:00 5,4 0,5 4,1 3,5 5,5 10,5 9 5 22 12 E 1040,3 10 60 0,0
17.11.2018 15:00:00 5,9 0,4 5,6 4,7 5,3 10,5 9 5 20 11 ESE 1039,7 10 60 0,0
17.11.2018 14:00:00 5,7 0,7 5,8 5,1 5,1 10,5 14 8 25 14 SE 1039,5 10 60 0,0
17.11.2018 13:00:00 5,0 0,3 5,5 4,9 4,9 10,5 17 9 23 12 SE 1039,6 9 60 0,0
17.11.2018 12:00:00 4,2 0,5 4,8 3,9 4,7 10,5 13 7 27 15 ESE 1040,0 9 60 0,0
17.11.2018 11:00:00 3,1 0,2 2,2 2,1 4,6 10,5 11 6 22 12 ESE 1040,2 8 60 0,0
17.11.2018 10:00:00 2,4 -0,2 3,0 1,0 4,7 10,6 10 6 21 11 ESE 1040,2 8 60 0,0
17.11.2018 09:00:00 1,5 -0,4 0,5 0,5 4,8 10,6 13 7 22 12 SE 1040,2 8 40 0,0
17.11.2018 08:00:00 1,4 -0,6 0,2 0,5 4,9 10,6 13 7 22 12 ESE 1040,1 8 0 0,0
17.11.2018 07:00:00 1,5 -0,4 0,3 0,3 5,1 10,6 13 7 23 13 SE 1039,4 8 0 0,0
17.11.2018 06:00:00 1,9 -0,2 0,6 0,5 5,3 10,6 16 9 26 14 SE 1038,9 9 0 0,0
17.11.2018 05:00:00 2,2 -0,1 0,9 0,8 5,5 10,6 11 6 22 12 ESE 1039,1 9 0 0,0
17.11.2018 04:00:00 2,4 0,1 0,6 1,1 5,7 10,6 9 5 16 8 ESE 1039,1 9 0 0,0
17.11.2018 03:00:00 3,5 0,7 1,8 1,7 5,9 10,6 8 4 20 11 E 1039,0 11 0 0,0
17.11.2018 02:00:00 4,3 1,3 2,7 3,1 6,0 10,7 11 6 22 12 SE 1038,9 12 0 0,0
17.11.2018 01:00:00 3,8 1,5 3,1 2,3 6,2 10,7 9 5 18 10 ESE 1038,3 12 0 0,0
17.11.2018 00:00:00 3,7 1,5 1,7 2,2 6,3 10,7 11 6 27 14 ESE 1038,1 12 0 0,0
16.11.2018 23:00:00 4,5 1,8 3,4 2,8 6,5 10,7 18 10 33 18 SE 1037,8 12 0 0,0
16.11.2018 22:00:00 4,9 2,0 3,8 3,2 6,7 10,7 18 10 31 17 SE 1037,3 14 0 0,0
16.11.2018 21:00:00 5,7 2,5 4,6 3,5 6,8 10,7 21 12 34 19 SE 1037,1 15 0 0,0
16.11.2018 20:00:00 6,0 2,8 4,8 3,7 7,0 10,7 19 10 31 17 SE 1036,8 14 0 0,0
16.11.2018 19:00:00 6,5 2,7 5,3 3,9 7,1 10,7 21 11 31 17 SE 1036,5 16 0 0,0
16.11.2018 18:00:00 6,7 2,8 5,5 4,1 7,3 10,8 21 11 29 15 SE 1036,0 16 0 0,0
16.11.2018 17:00:00 7,4 2,9 5,6 4,7 7,5 10,8 16 8 23 12 SE 1035,9 23 9 0,0
16.11.2018 16:00:00 8,8 2,7 7,1 5,9 7,5 10,8 14 8 27 15 SE 1035,9 27 60 0,0
16.11.2018 15:00:00 9,6 2,2 9,1 7,2 7,4 10,8 20 11 35 19 SE 1035,7 26 60 0,0
16.11.2018 14:00:00 10,1 2,5 10,1 7,8 7,2 10,8 14 8 37 20 SSE 1035,1 24 60 0,0
16.11.2018 13:00:00 9,2 3,6 9,5 7,8 7,0 10,8 14 8 33 18 SSE 1035,1 16 60 0,0
16.11.2018 12:00:00 8,3 3,0 8,7 6,8 6,8 10,8 22 12 35 19 SSE 1034,9 16 60 0,0
16.11.2018 11:00:00 7,3 2,5 6,3 5,1 6,7 10,8 14 8 27 15 SSE 1035,0 14 60 0,0
16.11.2018 10:00:00 5,8 1,7 6,0 4,1 6,7 10,8 15 8 29 16 SSE 1035,2 12 60 0,0
16.11.2018 09:00:00 4,8 1,8 4,1 3,4 6,8 10,8 19 11 27 15 SE 1034,6 10 44 0,0
16.11.2018 08:00:00 5,0 1,9 4,1 3,3 7,0 10,8 18 10 36 19 SE 1034,1 10 0 0,0
16.11.2018 07:00:00 5,2 2,0 4,3 3,4 7,1 10,8 21 12 31 17 SE 1033,3 12 0 0,0
16.11.2018 06:00:00 5,2 2,3 4,2 3,6 7,3 10,8 18 10 32 17 SE 1033,0 11 0 0,0
16.11.2018 05:00:00 5,7 2,6 4,7 3,9 7,4 10,8 17 9 36 19 SE 1032,5 12 0 0,0
16.11.2018 04:00:00 6,0 2,7 5,1 4,2 7,6 10,8 26 14 35 19 SE 1032,5 12 0 0,0
16.11.2018 03:00:00 6,2 2,8 5,3 4,4 7,7 10,9 23 13 36 19 SE 1032,4 17 0 0,0
16.11.2018 02:00:00 6,4 3,1 5,5 4,5 7,9 10,9 24 13 34 19 SE 1032,3 19 0 0,0
16.11.2018 01:00:00 6,5 3,5 5,7 4,8 8,1 10,9 22 12 31 17 SE 1032,1 19 0 0,0
16.11.2018 00:00:00 6,7 4,3 5,8 5,1 8,2 10,9 21 11 30 16 SE 1031,8 18 0 0,0
15.11.2018 23:00:00 6,9 4,8 6,0 5,4 8,4 10,9 20 11 31 17 SE 1031,5 13 0 0,0
15.11.2018 22:00:00 7,4 5,1 6,5 5,7 8,6 10,9 20 11 32 17 SE 1031,2 12 0 0,0
15.11.2018 21:00:00 8,0 5,5 7,2 6,1 8,7 10,9 23 12 33 18 SE 1030,8 14 0 0,0
15.11.2018 20:00:00 8,3 5,3 7,3 6,3 8,9 10,9 21 11 29 16 SE 1030,6 18 0 0,0
15.11.2018 19:00:00 8,8 5,8 7,7 6,6 9,1 10,9 18 10 26 14 SE 1030,4 15 0 0,0
15.11.2018 18:00:00 9,4 6,1 8,4 7,0 9,2 10,9 17 9 27 14 SE 1030,1 16 0 0,0
15.11.2018 17:00:00 10,2 6,0 9,0 7,5 9,4 10,9 18 10 28 15 SE 1029,9 18 3 0,0
15.11.2018 16:00:00 10,8 6,6 9,5 8,4 9,5 10,9 15 8 22 12 SE 1029,9 19 60 0,0
15.11.2018 15:00:00 11,5 6,4 11,1 9,7 9,4 10,9 13 7 24 13 SE 1029,9 20 60 0,0
15.11.2018 14:00:00 11,7 5,7 11,7 10,3 9,3 10,9 13 7 28 15 SSE 1029,9 24 60 0,0
15.11.2018 13:00:00 11,9 6,5 12,4 10,7 9,1 10,9 13 7 29 16 SSE 1029,8 18 60 0,0
15.11.2018 12:00:00 11,4 6,4 12,3 9,8 8,9 10,9 11 6 27 15 SSE 1029,9 18 60 0,0
15.11.2018 11:00:00 10,6 6,5 9,8 8,8 8,8 10,9 13 7 23 12 SSE 1030,0 12 60 0,0
15.11.2018 10:00:00 9,5 6,8 10,0 8,3 8,7 10,9 9 5 20 11 SSE 1030,1 11 12 0,0
15.11.2018 09:00:00 8,5 6,4 8,2 7,6 8,7 10,9 12 6 23 12 SSE 1029,6 11 0 0,0
15.11.2018 08:00:00 8,4 6,8 7,6 7,4 8,8 10,9 10 6 16 8 SE 1029,5 9 0 0,0
15.11.2018 07:00:00 8,4 6,9 7,9 7,4 8,8 10,9 9 5 16 9 SSE 1029,0 9 0 0,0
15.11.2018 06:00:00 8,4 7,1 7,7 7,4 8,9 10,9 8 4 15 8 SSE 1028,7 9 0 0,0
15.11.2018 05:00:00 8,4 7,1 7,7 7,2 9,0 10,9 8 4 14 8 SSE 1028,7 8 0 0,0
15.11.2018 04:00:00 8,5 7,3 7,6 7,5 9,0 10,9 8 5 15 8 SSE 1028,8 8 0 0,0
15.11.2018 03:00:00 8,8 7,6 7,9 8,0 9,1 10,9 7 4 13 7 SSE 1028,9 8 0 0,0
15.11.2018 02:00:00 8,8 7,5 8,2 8,0 9,1 10,9 9 5 14 8 S 1028,9 8 0 0,0
15.11.2018 01:00:00 8,9 7,5 8,2 8,1 9,1 10,9 8 4 17 9 S 1028,9 9 0 0,1
15.11.2018 00:00:00 9,1 7,5 8,5 8,1 9,2 10,9 9 5 18 10 S 1029,0 9 0 0,0
14.11.2018 23:00:00 9,1 7,5 8,7 8,1 9,2 10,9 9 5 16 9 S 1029,0 10 0 0,0
14.11.2018 22:00:00 8,9 7,5 8,4 7,8 9,3 10,9 10 5 18 10 S 1028,6 8 0 0,0
14.11.2018 21:00:00 9,0 7,4 8,4 8,0 9,3 10,9 7 4 16 8 S 1028,9 8 0 0,0
14.11.2018 20:00:00 9,0 7,4 8,3 8,0 9,4 10,9 9 5 18 10 S 1028,5 9 0 0,0
14.11.2018 19:00:00 9,0 7,3 8,4 8,0 9,5 10,9 12 6 21 11 S 1028,5 9 0 0,0
14.11.2018 18:00:00 9,1 7,2 8,6 8,2 9,6 10,9 11 6 21 12 S 1028,3 10 0 0,0
14.11.2018 17:00:00 9,2 7,2 8,6 8,4 9,7 10,9 11 6 24 13 S 1028,3 10 0 0,0
14.11.2018 16:00:00 9,6 7,4 9,0 9,0 9,8 10,9 10 5 20 11 S 1028,4 10 0 0,0
14.11.2018 15:00:00 9,9 7,3 9,6 10,0 9,8 10,9 11 6 21 11 SSW 1028,2 10 0 0,0
14.11.2018 14:00:00 9,6 7,1 9,6 10,2 9,7 10,9 12 7 20 11 SSW 1028,2 10 0 0,0
14.11.2018 13:00:00 9,6 7,0 10,0 10,6 9,6 10,9 10 5 24 13 SW 1028,3 11 0 0,0
14.11.2018 12:00:00 9,4 7,3 9,9 10,4 9,4 10,9 10 6 24 13 W 1028,5 9 29 0,0
14.11.2018 11:00:00 9,1 7,2 9,6 9,8 9,3 10,9 14 8 32 18 WSW 1028,2 9 41 0,0
14.11.2018 10:00:00 8,8 7,0 9,2 8,7 9,3 10,9 11 6 24 13 SW 1027,6 11 24 0,0
14.11.2018 09:00:00 9,2 7,3 8,9 8,6 9,3 10,9 9 5 21 11 SW 1027,2 19 0 0,0
14.11.2018 08:00:00 9,3 7,2 8,9 8,4 9,3 10,9 12 7 25 14 WSW 1026,7 25 0 0,0
14.11.2018 07:00:00 9,6 7,5 9,1 8,5 9,3 10,9 12 6 34 19 SW 1026,1 25 0 0,0
14.11.2018 06:00:00 9,9 7,6 9,3 8,6 9,3 10,9 18 10 30 16 WSW 1025,7 29 0 0,0
14.11.2018 05:00:00 9,8 7,5 9,1 8,6 9,3 10,9 16 9 39 21 WSW 1025,2 32 0 0,0
14.11.2018 04:00:00 9,8 7,9 8,9 8,6 9,3 10,9 19 10 40 22 WSW 1025,1 28 0 0,2
14.11.2018 03:00:00 10,0 7,4 9,5 8,3 9,4 10,9 17 9 40 22 WSW 1024,6 34 0 0,0
14.11.2018 02:00:00 9,9 7,1 9,0 8,0 9,4 10,9 17 9 37 20 WSW 1024,2 35 0 0,0
14.11.2018 01:00:00 10,3 7,3 9,5 8,3 9,4 10,9 18 10 37 20 WSW 1023,5 35 0 0,0
14.11.2018 00:00:00 10,3 7,3 9,8 8,6 9,4 10,9 19 10 36 20 WSW 1023,3 37 0 0,0
13.11.2018 23:00:00 10,1 7,2 9,4 8,3 9,5 10,9 19 10 36 19 WSW 1022,6 31 0 0,0
13.11.2018 22:00:00 9,8 7,5 8,9 8,3 9,5 10,9 19 10 33 18 SW 1022,2 16 0 0,0
13.11.2018 21:00:00 9,8 7,2 9,0 7,9 9,7 10,9 16 8 32 18 SW 1021,8 21 0 0,0
13.11.2018 20:00:00 9,7 7,2 9,1 8,2 9,8 10,9 16 9 33 18 SW 1021,4 20 0 0,0
13.11.2018 19:00:00 9,6 7,1 8,7 8,1 9,9 10,9 15 8 30 16 SW 1021,3 25 0 0,0
13.11.2018 18:00:00 9,7 7,4 8,3 8,4 10,1 10,9 14 8 31 17 SW 1020,8 24 0 0,0
13.11.2018 17:00:00 10,2 7,9 9,1 9,1 10,2 10,9 14 8 31 17 SW 1020,3 17 0 1,2
13.11.2018 16:00:00 10,6 8,0 9,5 9,9 10,2 10,9 16 9 32 17 WSW 1019,7 7 0 0,6
13.11.2018 15:00:00 12,1 7,9 11,4 10,6 10,1 10,9 18 10 39 21 SW 1019,1 15 3 0,0
13.11.2018 14:00:00 11,8 9,0 11,1 11,1 10,0 10,9 19 10 32 18 SSW 1018,9 13 4 0,1
13.11.2018 13:00:00 11,4 8,8 11,3 11,0 9,9 10,9 14 8 27 15 S 1018,7 14 3 0,0
13.11.2018 12:00:00 10,8 8,5 10,8 10,5 9,8 10,9 17 9 29 16 S 1019,0 10 0 0,0
13.11.2018 11:00:00 10,4 8,4 10,3 9,8 9,7 10,9 11 6 22 12 S 1019,1 9 0 0,0
13.11.2018 10:00:00 10,0 8,3 9,7 9,2 9,8 10,9 10 5 16 9 S 1018,8 8 0 0,0
13.11.2018 09:00:00 9,8 8,2 9,5 8,9 9,8 10,9 10 5 16 8 S 1019,2 8 0 0,0
13.11.2018 08:00:00 9,7 8,4 9,1 8,6 9,9 10,9 8 4 16 9 S 1018,9 8 0 0,0
13.11.2018 07:00:00 9,8 8,5 9,0 8,7 10,0 10,9 10 5 14 8 SSW 1018,3 9 0 0,0
13.11.2018 06:00:00 10,1 8,6 9,1 8,8 10,1 10,9 6 3 15 8 WSW 1018,0 10 0 0,0
13.11.2018 05:00:00 10,4 8,9 9,5 9,1 10,1 10,9 8 4 18 10 SW 1017,9 10 0 0,0
13.11.2018 04:00:00 10,8 8,9 10,0 9,5 10,2 10,9 9 5 21 12 SW 1017,5 12 0 0,0
13.11.2018 03:00:00 11,0 9,2 10,4 9,6 10,2 10,9 10 6 23 12 SW 1017,7 10 0 0,0
13.11.2018 02:00:00 11,2 9,4 10,6 10,0 10,3 10,9 12 6 23 13 SW 1017,2 11 0 0,0
13.11.2018 01:00:00 11,2 9,5 10,8 10,0 10,3 10,8 11 6 25 14 SW 1016,5 11 0 0,0
13.11.2018 00:00:00 11,2 9,7 10,6 9,8 10,4 10,8 13 7 31 17 WSW 1016,5 18 0 0,0
12.11.2018 23:00:00 11,2 9,6 10,5 10,2 10,4 10,8 13 7 46 25 W 1015,5 19 0 0,0
12.11.2018 22:00:00 12,5 10,9 11,8 11,0 10,3 10,8 17 9 32 17 WSW 1014,7 13 0 0,0
12.11.2018 21:00:00 13,2 10,0 12,5 10,7 10,3 10,8 11 6 21 12 SW 1014,1 16 0 0,0
12.11.2018 20:00:00 13,4 9,5 12,6 10,6 10,2 10,8 11 6 30 16 SSW 1013,2 50 0 0,0
12.11.2018 19:00:00 12,9 9,6 12,2 10,3 10,2 10,8 11 6 29 15 S 1012,5 34 0 0,0
12.11.2018 18:00:00 12,6 10,0 11,4 10,3 10,3 10,8 13 7 29 16 S 1012,3 21 0 0,0
12.11.2018 17:00:00 11,9 10,2 11,2 10,4 10,2 10,8 13 7 29 15 S 1012,7 14 0 0,0
12.11.2018 16:00:00 11,5 10,1 10,8 10,6 10,2 10,8 13 7 29 16 SSE 1013,0 12 1 0,0
12.11.2018 15:00:00 11,4 10,2 10,8 11,1 10,1 10,8 17 9 24 13 SE 1013,3 11 0 0,0
12.11.2018 14:00:00 11,0 10,4 10,7 10,7 10,1 10,8 8 4 21 11 E 1014,1 11 0 0,5
12.11.2018 13:00:00 11,0 10,2 10,5 10,6 10,0 10,8 14 8 19 11 SE 1015,3 9 0 1,3
12.11.2018 12:00:00 11,0 10,1 10,5 10,7 9,9 10,8 9 5 18 10 SE 1015,3 8 0 2,0
12.11.2018 11:00:00 11,3 9,6 10,5 10,5 9,8 10,8 9 5 19 10 SSE 1015,5 11 0 0,1
12.11.2018 10:00:00 11,1 9,2 10,5 10,2 9,7 10,8 11 6 23 12 S 1015,8 24 0 0,0
12.11.2018 09:00:00 10,9 9,4 10,1 9,4 9,7 10,8 6 3 13 7 S 1015,8 35 0 0,0
12.11.2018 08:00:00 10,7 9,4 9,5 9,0 9,8 10,8 8 4 13 7 S 1015,7 25 0 0,0
12.11.2018 07:00:00 10,9 9,4 9,7 9,0 9,8 10,8 6 4 19 10 S 1015,1 29 0 0,0
12.11.2018 06:00:00 11,0 9,4 9,8 9,1 9,9 10,8 11 6 18 10 S 1014,8 31 0 0,0
12.11.2018 05:00:00 11,4 9,6 10,3 9,6 9,9 10,8 11 6 22 12 S 1014,2 37 0 0,0

tt = Température de l'air
td = dewpoint
tt 5cm = Température de l'air 5cm
tt -5cm = Température de l'air -5cm
tt -20cm = Température de l'air -20cm
tt -100cm = Température de l'air -100cm
ff = Vitesse du vent
fx = gusts
dd = Direction du vent
ppp = reduced air pressure
vv = visibility
sd = Ensoleillement
rr = Quantités de précipitations

stations d'obs. à proximité